Home > Weather > Pretoria > Past weeks

Flag for South Africa Weather for the Past 2 Weeks in Pretoria, South Africa

Now
75 °F

Mild.


Feels Like: 78 °F
Forecast: 62 / 87 °F
Wind: 9 mph from Northwest

Location: Waterkloof Lmb

Current Time: Feb 10, 2016 at 1:01:19 PM

Latest Report: Feb 10, 2016 at 12:00 PM


Visibility: N/A

Pressure: 30.15 "Hg (25.85 "Hg at 1338m altitude)

Humidity: 50%

Dew point: 55 °F

Location of PretoriaLocation

Historic Weather in Pretoria — Graph

°F

Pretoria Temperature Yesterday

Maximum temperature yesterday: 82 °F (at 3:00 PM)
Minimum temperature yesterday: 59 °F (at 5:00 AM)
Average temperature yesterday: 72 °F

High & Low Weather Summary for the Past Weeks

 TemperatureHumidityPressure
High88 °F (Jan 30, 4:00 PM)88% (Jan 27, 3:00 AM)30.39 "Hg (Jan 27, 3:00 AM)
Low59 °F (Feb 9, 5:00 AM)16% (Jan 30, 5:00 PM)30.01 "Hg (Feb 3, 6:10 PM)
Average74 °F52%30.19 "Hg
* Reported Jan 26 12:00 Noon — Feb 10 12:00 Noon, Pretoria, Weather by CustomWeather, © 2016

Note: Actual official high and low records may vary slightly from our data, if they occured in-between our weather recording intervals... More about our weather records

Advertising

Pretoria Weather History for the Previous 24 Hours

 ConditionsComfort  
Time TempWeatherWind HumidityBarometerVisibility
12:00 PM
Wed, Feb 10
75 °FMild.9 mph50%30.15 "HgN/A
11:00 AM72 °FMild.13 mph61%30.18 "HgN/A
10:00 AM72 °FMild.12 mph61%30.21 "HgN/A
9:00 AM70 °FMild.10 mph60%30.18 "HgN/A
8:00 AM70 °FMild.10 mph60%30.15 "HgN/A
7:00 AM72 °FMild.10 mph57%30.15 "HgN/A
6:00 AM66 °FMild.8 mph68%30.15 "HgN/A
5:00 AM64 °FMild.6 mph78%30.15 "HgN/A
4:00 AM66 °FMild.3 mph73%30.15 "HgN/A
3:00 AM68 °FMild.8 mph69%30.15 "HgN/A
2:00 AM70 °FMild.6 mph60%30.15 "HgN/A
1:00 AM72 °FMild.6 mph61%30.15 "HgN/A
12:00 AM75 °FMild.5 mph50%30.15 "HgN/A
11:00 PM
Tue, Feb 9
73 °FMild.3 mph57%30.15 "HgN/A
10:00 PM75 °FMild.5 mph54%30.15 "HgN/A
9:00 PM73 °FMild.3 mph57%30.15 "HgN/A
8:00 PM73 °FMild.5 mph61%30.15 "HgN/A
7:00 PM73 °FMild.10 mph61%30.12 "HgN/A
6:00 PM81 °FWarm.7 mph42%30.12 "HgN/A
5:00 PM82 °FPleasantly warm.8 mph40%30.12 "HgN/A
4:00 PM82 °FPleasantly warm.5 mph40%30.12 "HgN/A
3:00 PM82 °FPleasantly warm.7 mph40%30.15 "HgN/A
2:00 PM81 °FWarm.10 mph42%30.18 "HgN/A
1:00 PM77 °FWarm.6 mph47%30.18 "HgN/A
Weather by CustomWeather, © 2016

See weather overviewHow to use our weather pages